Phoenix, AZ

4:47 PM MST on February 27, 2017 (GMT -0700)
Phoenix Sky Harbor International

Weather History for KPHX - February, 2014

Change the Weather History Date:

Wednesday, February 26, 2014

  Actual Average Record
Temperature  
Mean Temperature 68 °F 62 °F  
Max Temperature 81 °F 73 °F 91 °F (1986)
Min Temperature 55 °F 51 °F 33 °F (1919)
Degree Days  
Heating Degree Days 0 5  
Month to date heating degree days 65 155  
Since 1 July heating degree days 534 825  
Cooling Degree Days 3 1  
Month to date cooling degree days 48 9  
Year to date cooling degree days 52 11  
Growing Degree Days 18 (Base 50)    
Moisture  
Dew Point 36 °F    
Average Humidity 32    
Maximum Humidity 43    
Minimum Humidity 20    
Precipitation  
Precipitation 0.00 in 0.04 in 0.62 in (1950)
Month to date precipitation 0.00 0.85  
Year to date precipitation 0.00 1.76  
Snow  
Snow 0.00 in - - ()
Month to date snowfall 0.0  
Year to date snowfall 0.0  
Since 1 July snowfall 0.0  
Snow Depth 0.00 in    
Sea Level Pressure  
Sea Level Pressure 29.91 in    
Wind  
Wind Speed 4 mph (East)    
Max Wind Speed 10 mph    
Max Gust Speed 15 mph    
Visibility 10 miles    
Events      
T = Trace of Precipitation, MM = Missing Value Source: NWS Daily Summary

Daily Weather History Graph

Daily Weather History Graph

Search for Another Location

Airport or City:

Trip Planner

Search our weather history database for the weather conditions in past years. The results will help you decide how hot, cold, wet, or windy it might be!

Date:

Astronomy

Feb. 26, 2014 Rise Set
Actual Time 6:59 AM MST 6:22 PM MST
Civil Twilight 6:34 AM MST 6:47 PM MST
Nautical Twilight 6:05 AM MST 7:16 PM MST
Astronomical Twilight 5:37 AM MST 7:45 PM MST
Moon 4:42 AM MST (2/26) 3:46 PM MST (2/26)
Length of Visible Light 12h 12m
Length of Day
11h 22m
Waning Crescent, 9% of the Moon is Illuminated
Feb 26
Waning Crescent
Mar 1
New
Mar 8
First Quarter
Mar 16
Full
Mar 23
Last Quarter

Hourly Weather History & Observations

Time (MST) Temp. Dew Point Humidity Pressure Visibility Wind Dir Wind Speed Gust Speed Precip Events Conditions
12:51 AM 64.0 °F 39.0 °F 40% 29.93 in 10.0 mi Calm Calm - N/A   Scattered Clouds
1:51 AM 62.1 °F 39.0 °F 43% 29.94 in 10.0 mi ESE 3.5 mph - N/A   Partly Cloudy
2:51 AM 60.1 °F 35.1 °F 39% 29.93 in 10.0 mi East 5.8 mph - N/A   Partly Cloudy
3:51 AM 59.0 °F 35.1 °F 41% 29.92 in 10.0 mi East 5.8 mph - N/A   Partly Cloudy
4:51 AM 57.9 °F 34.0 °F 41% 29.93 in 10.0 mi ESE 3.5 mph - N/A   Partly Cloudy
5:51 AM 57.0 °F 35.1 °F 44% 29.94 in 10.0 mi Calm Calm - N/A   Partly Cloudy
6:51 AM 55.9 °F 34.0 °F 44% 29.96 in 10.0 mi East 4.6 mph - N/A   Partly Cloudy
7:51 AM 57.0 °F 34.0 °F 42% 29.97 in 10.0 mi East 8.1 mph - N/A   Partly Cloudy
8:51 AM 62.1 °F 33.1 °F 34% 29.99 in 10.0 mi East 8.1 mph - N/A   Partly Cloudy
9:51 AM 66.9 °F 33.1 °F 28% 29.99 in 10.0 mi ENE 5.8 mph - N/A   Scattered Clouds
10:51 AM 72.0 °F 34.0 °F 25% 29.97 in 10.0 mi ESE 5.8 mph - N/A   Partly Cloudy
11:51 AM 75.0 °F 36.0 °F 24% 29.96 in 10.0 mi East 3.5 mph - N/A   Scattered Clouds
12:51 PM 78.1 °F 39.0 °F 25% 29.92 in 10.0 mi SSE 5.8 mph - N/A   Mostly Cloudy
1:51 PM 77.0 °F 37.9 °F 24% 29.89 in 10.0 mi Calm Calm - N/A   Mostly Cloudy
2:51 PM 80.1 °F 36.0 °F 20% 29.86 in 10.0 mi SSW 5.8 mph - N/A   Scattered Clouds
3:51 PM 79.0 °F 35.1 °F 20% 29.84 in 10.0 mi West 6.9 mph - N/A   Mostly Cloudy
4:51 PM 80.1 °F 36.0 °F 20% 29.83 in 10.0 mi Calm Calm - N/A   Mostly Cloudy
5:51 PM 79.0 °F 36.0 °F 21% 29.83 in 10.0 mi NNW 6.9 mph - N/A   Mostly Cloudy
6:51 PM 77.0 °F 37.0 °F 24% 29.84 in 10.0 mi NW 6.9 mph - N/A   Mostly Cloudy
7:51 PM 77.0 °F 37.0 °F 24% 29.85 in 10.0 mi NW 6.9 mph - N/A   Mostly Cloudy
8:51 PM 72.0 °F 37.9 °F 29% 29.86 in 10.0 mi SW 4.6 mph - N/A   Scattered Clouds
9:51 PM 70.0 °F 39.0 °F 32% 29.88 in 10.0 mi SW 3.5 mph - N/A   Partly Cloudy
10:51 PM 69.1 °F 37.9 °F 32% 29.88 in 10.0 mi Calm Calm - N/A   Partly Cloudy
11:51 PM 69.1 °F 37.9 °F 32% 29.88 in 10.0 mi WNW 3.5 mph - N/A   Partly Cloudy